Starlink 31993

operational
NORAD ID: 59961 Int'l Des: 2024-107 Owner: SPXS Country: US Constellation: starlink
LEOCIRCULAR

About Starlink 31993

Description loading...

Live Position

Loading 3D Globe...

Upcoming Passes

Altitude History

Altitude vs Time

uPlot chart will show altitude changes over time

Two-Line Element Set

1 59961U 24107S 25352.55192124 -.00000064 00000-0 99603-5 0 9993
2 59961 53.1599 82.4263 0000919 86.7075 273.4030 15.30196756 87312
Epoch: Dec 18, 2025 • Age: 10 hours

Current Status

Altitude 477.5 km
Velocity 7.63 km/s
Sub-Earth Point 36.10°N, 42.82°E
Launch Date Jun 5, 2024
Age 1.5 years
Type internet

Technical Details

Classification Payload
Mass 730.00 kg
Dry Mass 700.00 kg
Total Mass 730.00 kg
Length 0.30 m
Diameter 4.10 m
Span 29.00 m
Shape Box + pan
Manufacturer SPXS
Bus Type Starlink V2M
Phase Status In Orbit
Owner/State SPXS/US

Large Constellations

Loading constellations...